Tracking 29892 objects as of 21-Nov-2024
HD Live streaming from Space Station
objects crossing your sky now

SL-8 R/B

Track SL-8 R/B now!
10-day predictions


NORAD ID: 12508
Int'l Code: 1981-053B
Perigee: 955.7 km
Apogee: 1,010.8 km
Inclination: 83.0 °
Period: 104.6 minutes
Semi major axis: 7354 km
RCS: 4.686 m2 (large)
Launch date: June 4, 1981
Source: Commonwealth of Independent States (former USSR) (CIS)
Launch site: PLESETSK MISSILE AND SPACE COMPLEX (PKMTR)

Note: This is a ROCKET BODY
Your satellite tracking list
Your tracking list is empty




NASA's NSSDC Master Catalog

Two Line Element Set (TLE):
1 12508U 81053B   24325.86726377  .00000123  00000-0  10985-3 0  9997
2 12508  82.9559 292.6891 0037467 173.9044 186.2577 13.76554865188539
Source of the keplerian elements: AFSPC